Time,TemperatureF,DewpointF,PressureIn,WindDirection,WindDirectionDegrees,WindSpeedMPH,WindSpeedGustMPH,Humidity,HourlyPrecipIn,Conditions,Clouds,dailyrainin,SoftwareType,DateUTC
2013-02-17 14:19:00,44.6,24.0,30.16,SSW,209,4.0,6.0,44,0.00,,---,0.00,VWS V13.01,2013-02-17 20:19:00,
2013-02-17 14:24:00,45.0,25.5,30.16,SSW,207,3.0,10.0,46,0.00,,---,0.00,VWS V13.01,2013-02-17 20:24:00,
2013-02-17 14:29:00,45.2,24.6,30.16,SSW,198,6.0,11.0,44,0.00,,---,0.00,VWS V13.01,2013-02-17 20:29:00,
2013-02-17 14:34:00,45.1,24.5,30.16,SSW,201,9.0,11.0,44,0.00,,---,0.00,VWS V13.01,2013-02-17 20:34:00,
2013-02-17 14:39:00,45.2,25.7,30.16,SSW,205,9.0,11.0,46,0.00,,---,0.00,VWS V13.01,2013-02-17 20:39:00,
2013-02-17 14:44:00,45.0,24.4,30.16,SSW,209,6.0,7.0,44,0.00,,---,0.00,VWS V13.01,2013-02-17 20:44:00,
2013-02-17 14:49:00,44.9,24.3,30.15,SSW,208,9.0,11.0,44,0.00,,---,0.00,VWS V13.01,2013-02-17 20:49:00,
2013-02-17 14:54:00,44.9,24.3,30.15,SSW,206,3.0,11.0,44,0.00,,---,0.00,VWS V13.01,2013-02-17 20:54:00,
2013-02-17 14:59:00,45.0,25.5,30.15,SSW,207,9.0,11.0,46,0.00,,---,0.00,VWS V13.01,2013-02-17 20:59:00,
2013-02-17 15:04:00,45.2,24.6,30.15,SSW,208,4.0,11.0,44,0.00,,---,0.00,VWS V13.01,2013-02-17 21:04:00,
2013-02-17 15:09:00,45.8,25.1,30.15,South,182,12.0,12.0,44,0.00,,---,0.00,VWS V13.01,2013-02-17 21:09:00,
2013-02-17 15:14:00,46.4,26.8,30.15,SSW,197,11.0,11.0,46,0.00,,---,0.00,VWS V13.01,2013-02-17 21:14:00,
2013-02-17 15:19:00,46.7,26.0,30.14,SSW,206,11.0,12.0,44,0.00,,---,0.00,VWS V13.01,2013-02-17 21:19:00,
2013-02-17 15:24:00,46.7,25.4,30.14,SSW,204,4.0,15.0,43,0.00,,---,0.00,VWS V13.01,2013-02-17 21:24:00,
2013-02-17 15:29:00,46.7,24.8,30.14,SSW,200,4.0,15.0,42,0.00,,---,0.00,VWS V13.01,2013-02-17 21:29:00,
2013-02-17 15:34:00,46.6,24.2,30.14,South,188,5.0,15.0,41,0.00,,---,0.00,VWS V13.01,2013-02-17 21:34:00,
2013-02-17 15:39:00,46.6,24.8,30.14,SSW,200,6.0,15.0,42,0.00,,---,0.00,VWS V13.01,2013-02-17 21:39:00,
2013-02-17 15:44:00,46.6,24.8,30.14,South,186,8.0,12.0,42,0.00,,---,0.00,VWS V13.01,2013-02-17 21:44:00,
2013-02-17 15:49:00,46.7,24.8,30.14,South,186,5.0,12.0,42,0.00,,---,0.00,VWS V13.01,2013-02-17 21:49:00,
2013-02-17 15:54:00,46.8,24.9,30.14,South,186,6.0,12.0,42,0.00,,---,0.00,VWS V13.01,2013-02-17 21:54:00,
2013-02-17 15:59:00,46.7,25.4,30.14,South,190,5.0,12.0,43,0.00,,---,0.00,VWS V13.01,2013-02-17 21:59:00,
2013-02-17 16:04:00,46.7,24.8,30.13,SSW,192,7.0,12.0,42,0.00,,---,0.00,VWS V13.01,2013-02-17 22:04:00,
2013-02-17 16:09:00,46.6,24.2,30.13,South,188,8.0,12.0,41,0.00,,---,0.00,VWS V13.01,2013-02-17 22:09:00,
2013-02-17 16:14:00,46.5,25.2,30.13,South,180,6.0,9.0,43,0.00,,---,0.00,VWS V13.01,2013-02-17 22:14:00,
2013-02-17 16:19:00,46.5,23.5,30.13,South,188,7.0,10.0,40,0.00,,---,0.00,VWS V13.01,2013-02-17 22:19:00,
2013-02-17 16:24:00,46.2,24.4,30.13,South,178,6.0,10.0,42,0.00,,---,0.00,VWS V13.01,2013-02-17 22:24:00,
2013-02-17 16:29:00,46.0,24.2,30.12,South,179,6.0,10.0,42,0.00,,---,0.00,VWS V13.01,2013-02-17 22:29:00,
2013-02-17 16:34:00,46.1,24.9,30.12,South,179,4.0,10.0,43,0.00,,---,0.00,VWS V13.01,2013-02-17 22:34:00,
2013-02-17 16:39:00,46.0,24.8,30.12,South,180,3.0,11.0,43,0.00,,---,0.00,VWS V13.01,2013-02-17 22:39:00,
2013-02-17 16:44:00,45.9,24.7,30.12,South,180,3.0,6.0,43,0.00,,---,0.00,VWS V13.01,2013-02-17 22:44:00,
2013-02-17 16:49:00,45.8,24.6,30.12,South,179,0.0,6.0,43,0.00,,---,0.00,VWS V13.01,2013-02-17 22:49:00,
2013-02-17 16:54:00,45.7,23.9,30.12,South,176,5.0,10.0,42,0.00,,---,0.00,VWS V13.01,2013-02-17 22:54:00,
2013-02-17 16:59:00,45.4,24.8,30.12,South,174,2.0,10.0,44,0.00,,---,0.00,VWS V13.01,2013-02-17 22:59:00,
2013-02-17 17:04:00,45.0,24.4,30.13,SSE,168,5.0,10.0,44,0.00,,---,0.00,VWS V13.01,2013-02-17 23:04:00,
2013-02-17 17:09:00,44.7,24.7,30.13,SSE,168,5.0,10.0,45,0.00,,---,0.00,VWS V13.01,2013-02-17 23:09:00,
2013-02-17 17:14:00,44.5,24.5,30.13,SSE,168,3.0,9.0,45,0.00,,---,0.00,VWS V13.01,2013-02-17 23:14:00,
2013-02-17 17:19:00,44.2,24.2,30.12,SSE,168,4.0,9.0,45,0.00,,---,0.00,VWS V13.01,2013-02-17 23:19:00,
2013-02-17 17:24:00,44.0,24.0,30.13,SSE,168,4.0,9.0,45,0.00,,---,0.00,VWS V13.01,2013-02-17 23:24:00,
2013-02-17 17:29:00,43.8,24.4,30.12,SSE,168,3.0,9.0,46,0.00,,---,0.00,VWS V13.01,2013-02-17 23:29:00,
2013-02-17 17:34:00,43.5,24.6,30.12,SSE,168,4.0,9.0,47,0.00,,---,0.00,VWS V13.01,2013-02-17 23:34:00,
2013-02-17 17:39:00,43.3,24.4,30.12,SSE,168,4.0,9.0,47,0.00,,---,0.00,VWS V13.01,2013-02-17 23:39:00,
2013-02-17 17:44:00,43.0,24.7,30.12,SSE,168,2.0,5.0,48,0.00,,---,0.00,VWS V13.01,2013-02-17 23:44:00,
2013-02-17 17:49:00,42.7,24.4,30.12,SSE,168,4.0,5.0,48,0.00,,---,0.00,VWS V13.01,2013-02-17 23:49:00,
2013-02-17 17:54:00,42.5,24.2,30.12,SSE,168,2.0,5.0,48,0.00,,---,0.00,VWS V13.01,2013-02-17 23:54:00,
2013-02-17 17:59:00,42.1,24.8,30.12,SSE,168,0.0,5.0,50,0.00,,---,0.00,VWS V13.01,2013-02-17 23:59:00,
2013-02-17 18:04:00,41.6,24.4,30.12,SSE,168,3.0,5.0,50,0.00,,---,0.00,VWS V13.01,2013-02-18 00:04:00,
2013-02-17 18:09:00,41.4,24.2,30.12,SSE,168,2.0,5.0,50,0.00,,---,0.00,VWS V13.01,2013-02-18 00:09:00,
2013-02-17 18:14:00,41.3,25.0,30.12,SSE,168,2.0,4.0,52,0.00,,---,0.00,VWS V13.01,2013-02-18 00:14:00,
2013-02-17 18:19:00,41.0,24.7,30.12,SSE,168,2.0,4.0,52,0.00,,---,0.00,VWS V13.01,2013-02-18 00:19:00,
2013-02-17 18:24:00,40.9,24.6,30.12,SSE,168,1.0,5.0,52,0.00,,---,0.00,VWS V13.01,2013-02-18 00:24:00,
2013-02-17 18:29:00,40.7,24.9,30.12,SSE,168,3.0,5.0,53,0.00,,---,0.00,VWS V13.01,2013-02-18 00:29:00,